Location: Julian California
(33.0790°N, 116.6010°W)
Time: 14:59:19
(UTC-07:00)

Cosmos 1437 - Pass Details

Date: 19 May 2017
Orbit: 409 x 417 km, 81.2° (Epoch: 24 May)

Event Time Altitude Azimuth Distance (km) Brightness Sun altitude
Exits shadow 21:39:20 55° 257° (WSW) 494 3.2 -21.2°
Maximum altitude 21:39:33 57° 279° (W) 484 3.2 -21.2°
Drops below altitude 10° 21:42:43 10° 359° (N) 1,475 6.1 -21.7°
Sets 21:44:47 0° 4° (N) 2,342 7.1 -22.0°
